BMCB-29 Weather Reports


time (UTC)temp
C
wind
direction
speed
KPH
gust
KPH
rain 1hr
cm
rain 24hr
cm
rain mn
cm
humidity
%
barometer
mb
20260507192047 11 0 0.0 0.0 0.00 0.00 0.00 92 1018.5
20260507191048 11 0 0.0 0.0 0.00 0.00 0.00 92 1018.5
20260507184045 11 0 0.0 0.0 0.00 0.00 0.00 88 1018.4
20260507183051 12 0 0.0 0.0 0.00 0.00 0.00 86 1018.4
20260507182050 12 0 0.0 0.0 0.00 0.00 0.00 84 1018.4
20260507181046 11 0 0.0 0.0 0.00 0.00 0.00 86 1018.4
20260507180047 12 0 0.0 0.0 0.00 0.00 0.00 83 1018.4
20260507175046 12 0 0.0 0.0 0.00 0.00 0.00 79 1018.2
20260507173048 13 0 0.0 0.0 0.00 0.00 0.00 68 1018.2
20260507172050 13 0 0.0 0.0 0.00 0.00 0.00 67 1018.2
20260507171047 13 0 0.0 0.0 0.00 0.00 0.00 66 1018.1
20260507170050 14 0 0.0 0.0 0.00 0.00 0.00 63 1018.1
20260507165047 14 0 0.0 0.0 0.00 0.00 0.00 62 1018.1
20260507164050 14 0 0.0 0.0 0.00 0.00 0.00 62 1018.0
20260507163047 14 0 0.0 0.0 0.00 0.00 0.00 63 1018.0
20260507162049 14 0 0.0 0.0 0.00 0.00 0.00 63 1018.0
20260507161048 14 0 0.0 0.0 0.00 0.00 0.00 62 1018.0
20260507160045 14 0 0.0 0.0 0.00 0.00 0.00 63 1018.0
20260507155049 14 0 0.0 0.0 0.00 0.00 0.00 62 1018.0
20260507153046 14 0 0.0 0.0 0.00 0.00 0.00 61 1018.1
20260507151047 14 0 0.0 0.0 0.00 0.00 0.00 61 1018.1
20260507145045 14 0 0.0 0.0 0.00 0.00 0.00 61 1018.0
20260507144046 15 0 0.0 0.0 0.00 0.00 0.00 63 1018.0
20260507143046 14 0 0.0 0.0 0.00 0.00 0.00 62 1018.1
20260507142045 14 0 0.0 0.0 0.00 0.00 0.00 62 1018.1
20260507141045 15 0 0.0 0.0 0.00 0.00 0.00 62 1018.1
20260507140053 14 0 0.0 0.0 0.00 0.00 0.00 64 1018.2
20260507135049 14 0 0.0 0.0 0.00 0.00 0.00 63 1018.3
20260507134045 13 0 0.0 0.0 0.00 0.00 0.00 63 1018.3
20260507133046 13 0 0.0 0.0 0.00 0.00 0.00 63 1018.3
20260507132045 13 0 0.0 0.0 0.00 0.00 0.00 64 1018.3
20260507131044 13 0 0.0 0.0 0.00 0.00 0.00 61 1018.2
20260507130045 13 0 0.0 0.0 0.00 0.00 0.00 62 1018.3
20260507125043 13 0 0.0 0.0 0.00 0.00 0.00 63 1018.3
20260507124047 13 0 0.0 0.0 0.00 0.00 0.00 64 1018.3
20260507123044 13 0 0.0 0.0 0.00 0.00 0.00 64 1018.3
20260507122042 13 0 0.0 0.0 0.00 0.00 0.00 65 1018.3
20260507121046 13 0 0.0 0.0 0.00 0.00 0.00 66 1018.3
20260507120045 13 0 0.0 0.0 0.00 0.00 0.00 65 1018.3
20260507115045 13 0 0.0 0.0 0.00 0.00 0.00 65 1018.3
20260507114044 13 0 0.0 0.0 0.00 0.00 0.00 63 1018.3
20260507112047 13 0 0.0 0.0 0.00 0.00 0.00 67 1018.3
20260507111044 13 0 0.0 0.0 0.00 0.00 0.00 71 1018.3
20260507110047 13 0 0.0 0.0 0.00 0.00 0.00 73 1018.4
20260507104040 12 0 0.0 0.0 0.00 0.00 0.00 71 1018.4
20260507103044 12 0 0.0 0.0 0.00 0.00 0.00 74 1018.4
20260507102045 12 0 0.0 0.0 0.00 0.03 0.00 74 1018.4
20260507101046 12 0 0.0 0.0 0.00 0.03 0.00 71 1018.4
20260507100045 12 0 0.0 0.0 0.00 0.03 0.00 71 1018.4
20260507095043 12 0 0.0 0.0 0.00 0.03 0.00 73 1018.3
20260507094046 12 0 0.0 0.0 0.00 0.05 0.00 76 1018.3
20260507093042 12 0 0.0 0.0 0.00 0.05 0.00 77 1018.2
20260507092042 12 0 0.0 0.0 0.00 0.05 0.00 76 1018.2
20260507091044 12 0 0.0 0.0 0.00 0.05 0.00 75 1018.2
20260507090043 12 0 0.0 0.0 0.00 0.08 0.00 78 1018.1
20260507085044 11 0 0.0 0.0 0.00 0.10 0.00 78 1018.1
20260507084045 11 0 0.0 0.0 0.00 0.13 0.00 79 1018.1
20260507083044 11 0 0.0 0.0 0.00 0.15 0.00 81 1018.1
20260507082043 11 0 0.0 0.0 0.00 0.15 0.00 84 1018.0
20260507081046 10 0 0.0 0.0 0.00 0.15 0.00 85 1018.0
20260507080043 10 0 0.0 0.0 0.00 0.15 0.00 85 1017.9
20260507075045 10 0 0.0 0.0 0.00 0.15 0.00 85 1017.9
20260507074044 10 0 0.0 0.0 0.00 0.15 0.00 86 1017.9
20260507073043 10 0 0.0 0.0 0.00 0.18 0.00 89 1017.8
20260507072041 9 0 0.0 0.0 0.00 0.20 0.00 92 1017.8
20260507071042 9 0 0.0 0.0 0.00 0.23 0.00 93 1017.8
20260507070042 9 0 0.0 0.0 0.00 0.23 0.00 93 1017.7
20260507065041 8 0 0.0 0.0 0.00 0.23 0.00 93 1017.7
20260507064043 8 0 0.0 0.0 0.00 0.23 0.00 95 1017.7
20260507063042 8 0 0.0 0.0 0.00 0.23 0.00 98 1017.6
20260507060044 7 0 0.0 0.0 0.00 0.33 0.00 10 1017.4
20260507055040 7 0 0.0 0.0 0.00 0.33 0.00 10 1017.3
20260507054045 7 0 0.0 0.0 0.00 0.36 0.00 10 1017.2
20260507053043 7 0 0.0 0.0 0.00 0.38 0.00 10 1017.0
20260507052045 7 0 0.0 0.0 0.00 0.41 0.00 10 1017.0
20260507051045 7 0 0.0 0.0 0.00 0.43 0.00 10 1016.8
20260507050042 7 0 0.0 0.0 0.00 0.46 0.00 10 1016.7
20260507045044 7 0 0.0 0.0 0.00 0.48 0.00 10 1016.5
20260507044045 7 0 0.0 0.0 0.00 0.51 0.00 10 1016.4
20260507043044 6 0 0.0 0.0 0.00 0.53 0.00 10 1016.5
20260507042045 6 0 0.0 0.0 0.00 0.53 0.00 10 1016.4
20260507041044 6 0 0.0 0.0 0.00 0.56 0.00 10 1016.3
20260507040044 7 0 0.0 0.0 0.00 0.58 0.00 10 1016.2
20260507035043 7 0 0.0 0.0 0.00 0.58 0.00 10 1016.2
20260507034044 7 0 0.0 0.0 0.00 0.61 0.00 10 1016.2
20260507032046 7 0 0.0 0.0 0.00 0.64 0.00 10 1016.1
20260507030045 7 0 0.0 0.0 0.00 0.71 0.00 10 1015.9
20260507025044 7 0 0.0 0.0 0.00 0.71 0.00 10 1015.9
20260507024042 7 0 0.0 0.0 0.00 0.76 0.00 10 1015.9
20260507023041 7 0 0.0 0.0 0.00 0.79 0.00 10 1015.8
20260507022045 7 0 0.0 0.0 0.00 0.81 0.00 10 1015.7
20260507021047 7 0 0.0 0.0 0.00 0.84 0.00 10 1015.6
20260507020042 7 0 0.0 0.0 0.00 0.86 0.00 10 1015.6
20260507015042 7 0 0.0 0.0 0.00 0.89 0.00 10 1015.6
20260507014042 7 0 0.0 0.0 0.00 0.89 0.00 10 1015.6
20260507013041 7 0 0.0 0.0 0.00 0.94 0.00 10 1015.6
20260507012041 7 0 0.0 0.0 0.00 0.97 0.00 10 1015.5
20260507011043 7 0 0.0 0.0 0.00 0.99 0.00 10 1015.5
20260507010044 6 0 0.0 0.0 0.00 1.04 0.00 10 1015.5
20260507005042 6 0 0.0 0.0 0.00 1.09 0.00 10 1015.5
20260507004044 6 0 0.0 0.0 0.00 1.09 0.00 10 1015.4
20260507003042 6 0 0.0 0.0 0.00 1.12 0.00 10 1015.4
20260507002043 6 0 0.0 0.0 0.00 1.14 0.00 10 1015.4
20260507001043 6 0 0.0 0.0 0.00 1.17 0.00 10 1015.4
20260507000042 6 0 0.0 0.0 0.00 1.17 0.00 10 1015.4
20260506235046 6 0 0.0 0.0 0.00 1.19 0.00 10 1015.3
20260506234047 6 0 0.0 0.0 0.00 1.24 0.00 10 1015.3
20260506233045 6 0 0.0 0.0 0.00 1.24 0.00 10 1015.2
20260506232045 5 0 0.0 0.0 0.00 1.27 0.00 10 1015.2
20260506231043 5 0 0.0 0.0 0.00 1.27 0.00 10 1015.1
20260506230046 5 0 0.0 0.0 0.00 1.30 0.00 10 1015.0
20260506225047 5 0 0.0 0.0 0.00 1.32 0.00 99 1015.0
20260506220054 6 0 0.0 0.0 0.00 1.47 0.00 97 1014.5
20260506215047 6 0 0.0 0.0 0.00 1.50 1.47 96 1014.5
20260506214047 6 0 0.0 0.0 0.00 1.52 1.47 95 1014.4
20260506213045 7 0 0.0 0.0 0.00 1.55 1.47 92 1014.3
20260506212050 8 0 0.0 0.0 0.00 1.55 1.47 92 1014.1
20260506211047 8 0 0.0 0.0 0.00 1.55 1.47 93 1014.0
20260506210050 8 0 0.0 0.0 0.00 1.57 1.47 93 1013.9
20260506204048 8 0 0.0 0.0 0.00 1.60 1.47 93 1013.6
20260506203050 8 0 0.0 0.0 0.00 1.63 1.47 95 1013.5
20260506202049 9 0 0.0 0.0 0.00 1.63 1.47 96 1013.4
20260506201050 9 0 0.0 0.0 0.00 1.65 1.47 97 1013.3
20260506200050 10 0 0.0 0.0 0.00 1.65 1.47 97 1013.2
20260506195047 10 0 0.0 0.0 0.00 1.68 1.47 96 1013.1
20260506194048 10 0 0.0 0.0 0.00 1.70 1.47 97 1013.1
20260506193045 10 0 0.0 0.0 0.00 1.75 1.47 97 1012.9